Satellite: FAST1-2
Catalog number: 37227
Epoch time:      11068.12753356
Element set:    0098
Inclination:      071.9704 deg
RA of node:       259.8732 deg
Eccentricity:    0.0015726
Arg of perigee:   108.8223 deg
Mean anomaly:     251.4641 deg
Mean motion:   14.76400491 rev/day
Decay rate:       2.73e-06 rev/day^2
Epoch rev:           01609
Checksum:              295

/EX
SB KEPS @ AMSAT  $ORB11069.W
Orbital Elements  11069.WEATHER

HR AMSAT ORBITAL ELEMENTS FOR WEATHER SATELLITES
FROM WA5QGD FORT WORTH,TX March 10, 2011
Send Subscribe/unsubscribe to KEPS at http://www.amsat.org/mailman/listinfo/kep
BID: ORB11069.W
TO ALL RADIO AMATEURS BT

Satellite: NOAA-10
Catalog number: 16969
Epoch time:      11068.53540926
Element set:    0422
Inclination:      098.6289 deg
RA of node:       099.6299 deg
Eccentricity:    0.0012548
Arg of perigee:   153.0250 deg
Mean anomaly:     207.1596 deg
Mean motion:   14.27447101 rev/day
Decay rate:       1.03e-06 rev/day^2
Epoch rev:           27343
Checksum:              306

Satellite: NOAA-11
Catalog number: 19531
Epoch time:      11068.27970790
Element set:    0429
Inclination:      098.7529 deg
RA of node:       157.6320 deg
Eccentricity:    0.0011906
Arg of perigee:   111.5690 deg
Mean anomaly:     248.6746 deg
Mean motion:   14.14906489 rev/day
Decay rate:       1.39e-06 rev/day^2
Epoch rev:           15862
Checksum:              325

Satellite: NOAA-12
Catalog number: 21263
Epoch time:      11068.78128562
Element set:    0925
Inclination:      098.7563 deg
RA of node:       086.7778 deg
Eccentricity:    0.0013228
Arg of perigee:   113.7278 deg
Mean anomaly:     246.5288 deg
Mean motion:   14.25688566 rev/day
Decay rate:        8.3e-07 rev/day^2
Epoch rev:           03024
Checksum:              331

Satellite: MET-3/5
Catalog number: 21655
Epoch time:      11068.84298161
Element set:    0057
Inclination:      082.5559 deg
RA of node:       120.9717 deg
Eccentricity:    0.0014506
Arg of perigee:   049.8343 deg
Mean anomaly:     310.3962 deg
Mean motion:   13.17026925 rev/day
Decay rate:        5.1e-07 rev/day^2
Epoch rev:           94064
Checksum:              302

Satellite: MET-2/21
Catalog number: 22782
Epoch time:      11068.46458113
Element set:    0038
Inclination:      082.5461 deg
RA of node:       041.9897 deg
Eccentricity:    0.0023129
Arg of perigee:   022.5425 deg
Mean anomaly:     337.6750 deg
Mean motion:   13.83653002 rev/day
Decay rate:       -1.0e-08 rev/day^2
Epoch rev:           88476
Checksum:              295

Satellite: OKEAN-4
Catalog number: 23317
Epoch time:      11068.57690294
Element set:    0495
Inclination:      082.5380 deg
RA of node:       106.1500 deg
Eccentricity:    0.0023924
Arg of perigee:   087.3913 deg
Mean anomaly:     273.0030 deg
Mean motion:   14.82955932 rev/day
Decay rate:       4.79e-06 rev/day^2
Epoch rev:           88578
Checksum:              315

Satellite: NOAA-14
Catalog number: 23455
Epoch time:      11068.81605448
Element set:    0408
Inclination:      098.8545 deg
RA of node:       152.4290 deg
Eccentricity:    0.0008917
Arg of perigee:   197.7621 deg
Mean anomaly:     162.3235 deg
Mean motion:   14.13808551 rev/day
Decay rate:        4.3e-07 rev/day^2
Epoch rev:           83503
Checksum:              303

Satellite: NOAA-15
Catalog number: 25338
Epoch time:      11068.66355225
Element set:    0737
Inclination:      098.6473 deg
RA of node:       056.2098 deg
Eccentricity:    0.0011121
Arg of perigee:   027.2353 deg
Mean anomaly:     332.9404 deg
Mean motion:   14.24887583 rev/day
Decay rate:       -7.2e-07 rev/day^2
Epoch rev:           66655
Checksum:              313

Satellite: RESURS
Catalog number: 25394
Epoch time:      11068.62836308
Element set:    0744
Inclination:      098.2993 deg
RA of node:       077.1351 deg
Eccentricity:    0.0001686
Arg of perigee:   131.0021 deg
Mean anomaly:     229.1309 deg
Mean motion:   14.24224954 rev/day
Decay rate:        4.0e-08 rev/day^2
Epoch rev:           65813
Checksum:              284

Satellite: FENGYUN1
Catalog number: 25730
Epoch time:      11068.79678935
Element set:    0276
Inclination:      098.8102 deg
RA of node:       032.2081 deg
Eccentricity:    0.0022046
Arg of perigee:   231.0008 deg
Mean anomaly:     128.9207 deg
Mean motion:   14.08522492 rev/day
Decay rate:       7.69e-06 rev/day^2
Epoch rev:           60907
Checksum:              294

Satellite: OKEAN-0
Catalog number: 25860
Epoch time:      11068.56023678
Element set:    0250
Inclination:      097.8716 deg
RA of node:       037.8179 deg
Eccentricity:    0.0001044
Arg of perigee:   044.8983 deg
Mean anomaly:     315.2327 deg
Mean motion:   14.73720739 rev/day
Decay rate:       2.56e-06 rev/day^2
Epoch rev:           62598
Checksum:              318

Satellite: NOAA-16
Catalog number: 26536
Epoch time:      11068.63169488
Element set:    0218
Inclination:      099.1512 deg
RA of node:       097.1063 deg
Eccentricity:    0.0009905
Arg of perigee:   314.9166 deg
Mean anomaly:     045.1229 deg
Mean motion:   14.12601327 rev/day
Decay rate:       2.28e-06 rev/day^2
Epoch rev:           53930
Checksum:              299

